Ann Arbor, MI

9:23 AM EST on February 10, 2016 (GMT -0500)
Ann Arbor Municipal

Weather History for KARB - June, 2013

Change the Weather History Date:

Tuesday, June 18, 2013

  Actual Average Record
Temperature  
Mean Temperature 64 °F -  
Max Temperature 73 °F 76 °F 93 °F (2007)
Min Temperature 55 °F 52 °F 37 °F (1999)
Growing Degree Days 14 (Base 50)    
Moisture  
Dew Point 53 °F    
Average Humidity 69    
Maximum Humidity 96    
Minimum Humidity 39    
Precipitation  
Precipitation 0.01 in - - ()
Sea Level Pressure  
Sea Level Pressure 29.97 in    
Wind  
Wind Speed 8 mph (NE)    
Max Wind Speed 14 mph    
Max Gust Speed 16 mph    
Visibility 10 miles    
Events Rain , Thunderstorm    
Averages and records for this station are not official NWS values.
T = Trace of Precipitation, MM = Missing Value Source: NWS Daily Summary

Daily Weather History Graph

Daily Weather History Graph

Search for Another Location

Airport or City:

Trip Planner

Search our weather history database for the weather conditions in past years. The results will help you decide how hot, cold, wet, or windy it might be!

Date:

Astronomy

Jun. 18, 2013 Rise Set
Actual Time 5:58 AM EDT 9:14 PM EDT
Civil Twilight 5:23 AM EDT 9:48 PM EDT
Nautical Twilight 4:38 AM EDT 10:33 PM EDT
Astronomical Twilight 3:44 AM EDT 11:28 PM EDT
Moon 3:53 PM EDT (6/18) 2:10 AM EDT (6/18)
Length of Visible Light 16h 25m
Length of Day
15h 15m
Waxing Gibbous, 70% of the Moon is Illuminated
Jun 18
Waxing Gibbous
Jun 23
Full
Jun 30
Last Quarter
Jul 8
New
Jul 15
First Quarter

Hourly Weather History & Observations

Time (EDT) Temp. Dew Point Humidity Pressure Visibility Wind Dir Wind Speed Gust Speed Precip Events Conditions
12:09 AM 64.4 °F 60.8 °F 88% 29.95 in 6.0 mi SW 5.8 mph - 0.01 in Rain , Thunderstorm Light Rain
12:53 AM 64.0 °F 60.1 °F 87% 29.93 in 10.0 mi North 12.7 mph - 0.01 in   Partly Cloudy
1:53 AM 63.0 °F 57.9 °F 84% 29.88 in 10.0 mi NE 5.8 mph - N/A   Clear
2:53 AM 59.0 °F 57.9 °F 96% 29.89 in 10.0 mi Calm Calm - N/A   Clear
3:53 AM 61.0 °F 59.0 °F 93% 29.89 in 10.0 mi NE 8.1 mph - N/A   Clear
4:29 AM 60.8 °F 57.2 °F 88% 29.92 in 10.0 mi NE 4.6 mph - N/A   Partly Cloudy
4:45 AM 60.8 °F 57.2 °F 88% 29.92 in 10.0 mi NE 8.1 mph - N/A   Mostly Cloudy
4:53 AM 61.0 °F 57.9 °F 90% 29.90 in 10.0 mi NE 9.2 mph - N/A   Mostly Cloudy
5:26 AM 59.0 °F 57.2 °F 94% 29.92 in 10.0 mi NE 10.4 mph - N/A   Scattered Clouds
5:53 AM 59.0 °F 55.9 °F 90% 29.92 in 10.0 mi NNE 9.2 mph - N/A   Partly Cloudy
6:53 AM 57.9 °F 54.0 °F 87% 29.94 in 10.0 mi NNE 9.2 mph - N/A   Clear
7:53 AM 60.1 °F 53.1 °F 78% 29.96 in 10.0 mi NNE 9.2 mph - N/A   Clear
8:53 AM 62.1 °F 53.1 °F 72% 29.98 in 10.0 mi NE 11.5 mph - N/A   Clear
9:53 AM 64.9 °F 54.0 °F 68% 29.99 in 10.0 mi ENE 9.2 mph - N/A   Clear
10:53 AM 68.0 °F 54.0 °F 61% 29.99 in 10.0 mi NNE 10.4 mph - N/A   Mostly Cloudy
11:53 AM 70.0 °F 55.0 °F 59% 29.99 in 10.0 mi NE 9.2 mph - N/A   Partly Cloudy
12:53 PM 72.0 °F 55.9 °F 57% 29.99 in 10.0 mi NNE 9.2 mph - N/A   Scattered Clouds
1:53 PM 70.0 °F 54.0 °F 57% 30.00 in 10.0 mi NNE 9.2 mph 16.1 mph N/A   Overcast
2:53 PM 71.1 °F 55.0 °F 57% 30.00 in 10.0 mi NE 9.2 mph - N/A   Overcast
3:53 PM 71.1 °F 53.1 °F 53% 30.00 in 10.0 mi NNE 10.4 mph - N/A   Overcast
4:53 PM 72.0 °F 52.0 °F 49% 30.00 in 10.0 mi NE 11.5 mph - N/A   Mostly Cloudy
5:53 PM 71.1 °F 48.9 °F 45% 30.00 in 10.0 mi NE 8.1 mph - N/A   Mostly Cloudy
6:53 PM 70.0 °F 44.1 °F 39% 30.01 in 10.0 mi North 13.8 mph - N/A   Clear
7:53 PM 68.0 °F 43.0 °F 40% 30.03 in 10.0 mi NNE 11.5 mph - N/A   Clear
8:53 PM 64.9 °F 42.1 °F 43% 30.04 in 10.0 mi NNE 10.4 mph - N/A   Clear
9:53 PM 61.0 °F 42.1 °F 50% 30.06 in 10.0 mi NNE 8.1 mph - N/A   Clear
10:53 PM 57.9 °F 41.0 °F 53% 30.08 in 10.0 mi NE 6.9 mph - N/A   Clear
11:53 PM 55.0 °F 42.1 °F 62% 30.08 in 10.0 mi NE 4.6 mph - N/A   Clear